Location: Bushey
(51.6333°N, 0.3667°W)
Time: 16:35:33
(UTC+00:00)

Cosmos 1302 Rocket - Pass Details

Date: 03 March 2021
Orbit: 756 x 777 km, 74.0° (Epoch: 16 April)

Event Time Altitude Azimuth Distance (km) Brightness Sun altitude
Rises 18:08:39 0° 192° (SSW) 3,200 7.5 -4.4°
Reaches altitude 10° 18:11:00 10° 190° (S) 2,280 6.7 -4.8°
Maximum altitude 18:16:06 64° 110° (ESE) 844 4.0 -5.5°
Drops below altitude 10° 18:21:16 10° 30° (NNE) 2,305 6.2 -6.3°
Sets 18:23:40 0° 27° (NNE) 3,238 6.9 -6.7°
